{"data":{"norad_id":66172,"epoch":"2026-09-20T23:14:01.080384Z","epoch_age_seconds":59953,"freshness":"FRESH","line1":"1 66172U 25240AC  26263.96806806  .00005998  00000+0  18855-3 0  9997","line2":"2 66172  53.1566 233.8265 0001381  92.7230 267.3931 15.34395123 51918","mean_motion":15.34395123,"eccentricity":0.0001381,"inclination_deg":53.1566,"raan_deg":233.8265,"arg_perigee_deg":92.723,"mean_anomaly_deg":267.3931,"bstar":0.00018855,"rev_number":5191,"period_min":93.848056371853,"perigee_km":461.77301367828,"apogee_km":463.66245775628,"semimajor_km":6840.8547357173,"source":"CELESTRAK","updated_at":"2026-09-21T09:00:35.832758Z"}}